Moses Lake, WA
on Tuesday, November 6, 2012

Tuesday
Previous Day Next Day
Daily Summary
 ActualAverageRecord
Temperature
Mean Temperature °F 41°F  
Max Temperature 58°F 51°F 68°F (2006)
Min Temperature 38°F 31°F 10°F (2003)
Degree Days
Heating Degree Days 17 24  
Month to date heating degree days 88 137  
Since 1 July heating degree days 613 774  
Cooling Degree Days 0 0  
Month to date cooling degree days 0 0  
Year to date cooling degree days 719 615  
Moisture
Dew Point 39°F   
Average Humidity 72    
Maximum Humidity 92    
Minimum Humidity 51    
Precipitation
Precipitation 0.00 in 0.04 in 0.14 in (1983)
Month to date precipitation 0.08 0.22  
Year to date precipitation 6.68 6.69  
Wind
Wind Speed 3 mph   
Max Wind Speed 7 mph   
Max Gust Speed 8 mph   
Visibility 10 miles   
Events     

Key: T is trace of precipitation, MM is missing value
Source: NWS Daily Summary
Time(PST)TemperatureDew PointHumidity Pressure Visibility Wind DirectionWind SpeedGust SpeedPrecipitationEvents Conditions
12:52 AM 39.2°F 35.6°F 87% 30.18 in 10.0 miles North 3.5 mph - N/A   Mostly Cloudy
1:52 AM 39.9°F 36.0°F 86% 30.18 in 10.0 miles North 4.6 mph - N/A   Clear
2:52 AM 39.0°F 36.0°F 89% 30.16 in 10.0 miles North 6.9 mph - N/A   Clear
3:52 AM 39.0°F 35.1°F 86% 30.15 in 10.0 miles North 6.9 mph - N/A   Clear
4:52 AM 37.9°F 35.1°F 89% 30.14 in 10.0 miles North 5.8 mph - N/A   Scattered Clouds
5:25 AM 39.2°F 35.6°F 87% 30.12 in 10.0 miles North 4.6 mph - N/A   Mostly Cloudy
5:52 AM 39.0°F 35.1°F 86% 30.27 in 10.0 miles North 5.8 mph - N/A   Scattered Clouds
6:27 AM 39.2°F 35.6°F 87% 30.11 in 10.0 miles North 5.8 mph - N/A   Mostly Cloudy
6:52 AM 39.9°F 36.0°F 86% 30.12 in 10.0 miles North 4.6 mph - N/A   Overcast
7:20 AM 39.2°F 35.6°F 87% 30.10 in 10.0 miles North 4.6 mph - N/A   Scattered Clouds
7:52 AM 42.1°F 37.9°F 85% 30.12 in 10.0 miles North 4.6 mph - N/A   Clear
8:52 AM 45.0°F 39.9°F 82% 30.10 in 10.0 miles Calm Calm - N/A   Clear
9:52 AM 48.9°F 41.0°F 74% 30.08 in 10.0 miles Calm Calm - N/A   Clear
10:52 AM 53.1°F 42.1°F 66% 30.20 in - North - - N/A   Clear
11:52 AM 55.0°F 42.1°F 62% 30.01 in 10.0 miles North 5.8 mph - N/A   Clear
12:52 PM 55.9°F 39.9°F 55% 29.98 in 10.0 miles Calm Calm - N/A   Clear
1:52 PM 57.0°F 42.1°F 57% 29.95 in 10.0 miles SSE 4.6 mph - N/A   Clear
2:52 PM 57.0°F 39.0°F 51% 29.95 in 10.0 miles WSW 4.6 mph - N/A   Clear
3:52 PM 55.0°F 39.9°F 57% 30.06 in 10.0 miles South 4.6 mph - N/A   Clear
4:52 PM 54.0°F 43.0°F 66% 30.05 in 10.0 miles SSW 3.5 mph - N/A   Clear
5:52 PM 54.0°F 42.1°F 64% 30.05 in 10.0 miles South 4.6 mph - N/A   Clear
6:52 PM 52.0°F 43.0°F 71% 30.03 in 10.0 miles South 4.6 mph - N/A   Clear
7:52 PM 50.0°F 42.1°F 74% 30.03 in 10.0 miles Calm Calm - N/A   Partly Cloudy
8:52 PM 50.0°F 42.1°F 74% 29.88 in 10.0 miles Calm Calm - N/A   Clear
9:52 PM 50.0°F 42.1°F 74% 29.90 in 10.0 miles Calm Calm - N/A   Clear
10:52 PM 48.9°F 42.1°F 77% 29.90 in 10.0 miles Calm Calm - N/A   Clear
11:52 PM 46.9°F 41.0°F 80% 29.91 in 10.0 miles Calm Calm - N/A   Clear
Moon Phase
Nov. 06 Nov. 06 Nov. 13 Nov. 20 Nov. 28
Sunrise:06:48 AM (PST) Moon Rise:11:22 PM (PST)11/6
Sunset:04:32 PM (PST) Moon Set:12:39 PM (PST)11/6

Copyright © 2014 The Weather Underground, Inc.